This is the latest recevied weather packets stored in our database for station/object K7AEL. If no packets are shown the sender has not sent any weather packets the latest 1 day(s).
| Time | Temp. | Humidity | Pressure | Rain* | Wind** | Luminosity | Snow |
|---|---|---|---|---|---|---|---|
| 1777992558 | 16.11° C | 87% | 1013.8 hPa | 0 mm | 0 m/s | 64 W/m² | - |
| 1777992256 | 16.11° C | 88% | 1013.8 hPa | 0 mm | 0 m/s | 52 W/m² | - |
| 1777991953 | 15.56° C | 89% | 1013.7 hPa | 0 mm | 0 m/s | 58 W/m² | - |
| 1777991651 | 15.56° C | 90% | 1013.6 hPa | 0 mm | 0.45 m/s, 211° | 30 W/m² | - |
| 1777991347 | 16.11° C | 91% | 1013.6 hPa | 0 mm | 0 m/s | 43 W/m² | - |
| 1777991045 | 15.56° C | 91% | 1013.8 hPa | 0 mm | 0 m/s | 52 W/m² | - |
| 1777990742 | 15.56° C | 92% | 1013.7 hPa | 0 mm | 0 m/s | 63 W/m² | - |
| 1777990439 | 15.56° C | 92% | 1013.5 hPa | 0 mm | 0.45 m/s, 242° | 66 W/m² | - |
| 1777990135 | 15.56° C | 92% | 1013.8 hPa | 0 mm | 0 m/s | 22 W/m² | - |
| 1777989832 | 15.56° C | 92% | 1013.7 hPa | 0 mm | 0 m/s | 30 W/m² | - |
| 1777989529 | 15.56° C | 93% | 1013.5 hPa | 0 mm | 0 m/s | 31 W/m² | - |
| 1777989225 | 15.56° C | 93% | 1013.4 hPa | 0 mm | 0 m/s | 50 W/m² | - |
| 1777988922 | 15.56° C | 93% | 1013.3 hPa | 0 mm | 0 m/s | 40 W/m² | - |
| 1777988619 | 15.56° C | 93% | 1013.3 hPa | 0 mm | 0 m/s | 27 W/m² | - |
| 1777988315 | 15.56° C | 93% | 1013.3 hPa | 0 mm | 0 m/s | 32 W/m² | - |
| 1777988012 | 15° C | 93% | 1013.2 hPa | 0 mm | 0 m/s | 30 W/m² | - |
| 1777987708 | 15° C | 93% | 1012.9 hPa | 0 mm | 0 m/s | 24 W/m² | - |
| 1777987405 | 15° C | 93% | 1013.2 hPa | 0 mm | 0 m/s | 23 W/m² | - |
| 1777987102 | 15° C | 93% | 1013 hPa | 0 mm | 0 m/s | 29 W/m² | - |
| 1777986800 | 15° C | 93% | 1013 hPa | 0 mm | 0 m/s | 21 W/m² | - |
| 1777986497 | 15° C | 93% | 1012.9 hPa | 0 mm | 0 m/s | 17 W/m² | - |
| 1777986195 | 15° C | 93% | 1012.9 hPa | 0 mm | 0 m/s | 12 W/m² | - |
| 1777985892 | 15° C | 93% | 1012.8 hPa | 0 mm | 0 m/s | 8 W/m² | - |
| 1777985589 | 14.44° C | 93% | 1012.9 hPa | 0 mm | 0 m/s | 6 W/m² | - |
| 1777985286 | 14.44° C | 93% | 1012.7 hPa | 0 mm | 0 m/s | 4 W/m² | - |
* Rain latest hour (hover to see other rain measurements)
** Current wind speed in m/s (hover to see current wind gust speed)